CAPE
0 0 0 0 0 0 0 0 0 0 0 0 0 0 0 0 0 0 197 100 245 780 891 774 871 843 746 1148 1058 1180 1115 1212 1004 964 1159 1059 935 777 471 95 451 379 116 96
0 0 0 0 0 0 0 0 0 0 0 0 0 0 0 0 0 0 0 178 282 483 742 876 1011 999 905 731 1032 1342 1274 1341 1159 971 1078 1301 1097 907 749 494 199 291 164 0
0 0 0 0 0 0 0 0 0 0 0 0 0 0 0 0 0 0 0 0 0 67 472 780 779 1182 1133 913 1142 1466 1439 1473 1309 1097 973 1100 906 747 720 664 675 465 346 134
0 0 0 0 0 0 0 0 0 0 0 0 0 0 0 0 0 0 0 0 0 3 60 236 29 756 1317 1132 950 1397 1541 1575 1362 1153 1052 1249 1315 1321 1182 1034 764 649 656 496
0 0 0 0 0 0 0 0 0 0 0 0 0 0 0 0 0 0 0 0 1 22 34 54 138 637 989 1227 1062 939 1565 1561 1422 1280 1200 1112 1187 1157 1095 994 650 759 866 802
0 0 0 0 0 0 0 0 0 0 0 0 0 0 0 0 0 0 0 0 0 52 98 218 440 685 827 698 1119 1008 1164 1496 1430 1382 1244 1161 1109 1007 764 735 600 569 931 951
0 0 0 0 0 0 0 0 0 0 0 0 0 0 0 0 17 9 0 0 0 0 20 199 433 533 759 620 892 1199 1138 1264 1424 1337 1368 1140 1083 976 778 721 795 594 844 999
0 0 0 0 0 0 0 0 0 0 0 0 0 0 0 6 50 30 0 5 0 126 69 60 194 346 530 481 1076 1380 1172 1225 1479 1370 1361 1229 1031 1053 830 617 684 611 664 885
0 0 0 0 0 0 0 0 0 0 0 0 0 0 0 19 15 28 33 76 185 137 176 323 182 198 305 508 565 1605 1499 1417 1648 1622 1468 1473 1123 938 945 757 611 570 552 751
0 0 0 0 0 0 0 0 0 0 0 0 0 0 0 0 12 26 196 238 360 326 464 426 501 448 219 334 241 370 839 856 1115 2010 1700 1567 1428 1131 940 799 696 658 533 590
0 0 0 0 0 0 0 0 0 0 0 0 0 0 0 3 47 51 58 2 439 734 920 709 606 536 299 117 32 281 187 142 214 715 2031 1771 1683 1480 1201 1092 1026 707 807 686
0 0 0 0 0 0 0 0 0 0 0 0 0 0 0 43 25 127 28 0 118 966 391 228 164 379 660 0 85 55 239 359 351 598 1364 2013 1751 1718 1454 1301 1138 1435 970 970
0 0 0 0 0 0 0 0 0 0 0 0 0 0 0 15 27 0 0 0 100 411 416 307 11 127 377 530 424 523 546 317 220 275 1620 2100 1914 1591 1638 1633 1397 1066 1222 1153
0 0 0 0 0 0 0 0 0 0 0 0 0 0 0 35 7 0 43 1 0 351 384 196 15 46 0 43 170 54 236 180 67 550 1542 1425 251 302 76 48 637 1195 1123 1015
0 0 0 0 0 0 0 0 0 0 0 0 0 0 51 66 81 63 105 148 286 183 153 55 112 233 0 0 3 6 0 134 1 27 26 45 63 31 13 1 1 3 26 474
0 0 0 0 0 0 0 0 0 0 92 12 25 0 106 138 134 260 204 243 539 620 581 163 309 192 5 18 49 35 9 66 4 1 2 1 2 27 1 2 7 0 0 0
0 0 0 0 0 0 0 0 0 0 73 0 0 0 0 10 129 255 131 84 263 547 662 732 396 231 278 145 31 76 13 21 1 5 1 1 0 1 2 0 2 0 0 0
0 0 0 0 0 0 0 19 21 26 26 13 6 0 44 50 90 0 0 0 85 373 553 372 304 400 255 77 47 0 0 11 43 14 0 0 0 0 0 2 5 2 0 13
0 0 0 0 0 0 0 51 12 1 0 130 122 39 0 10 1 0 0 15 153 157 233 200 199 104 3 0 0 0 0 0 0 1 1 3 0 0 0 0 0 0 0 0
0 0 0 0 0 0 0 48 144 108 7 183 59 0 0 4 1 0 1 0 0 41 82 79 1 0 0 0 0 0 0 0 0 0 0 0 0 0 0 0 0 0 1 20
0 0 12 2 9 1 8 133 214 27 0 9 0 0 0 0 0 0 3 0 0 0 122 25 0 0 0 0 0 0 0 0 0 0 0 0 0 0 0 0 0 0 0 0
2 7 4 0 5 5 23 160 70 8 0 14 0 0 0 0 1 0 5 0 3 57 122 19 0 0 0 0 0 0 0 0 0 0 0 0 0 0 0 0 0 0 0 0
0 5 0 14 1 0 5 214 2 0 63 125 149 165 37 36 156 15 67 74 52 185 25 30 12 0 0 0 0 0 0 0 0 0 0 0 0 0 0 0 0 0 0 0
2 6 140 95 76 82 37 75 130 268 188 138 84 196 461 430 214 24 13 13 19 95 47 39 25 0 1 0 0 0 0 0 0 0 0 0 0 0 0 0 0 0 0 0
0 67 122 42 18 12 18 264 511 431 295 329 366 359 336 166 112 1 2 13 16 24 30 15 14 11 0 0 0 0 0 0 0 0 0 0 0 0 0 0 0 0 0 0
0 64 68 53 0 9 2 450 234 226 341 207 226 107 181 60 1 3 5 16 1 5 5 0 0 0 0 0 0 0 0 0 0 0 0 0 0 0 0 0 0 0 0 2
CIN
-0 -0 -0 -0 -0 -0 -0 -0 -0 -0 -0 -0 -0 -0 -0 -0 -0 -0 -226 -356 -352 -275 -290 -277 -369 -353 -492 -537 -593 -577 -536 -458 -420 -392 -314 -279 -296 -287 -356 -462 -290 -291 -351 -314
-0 -0 -0 -0 -0 -0 -0 -0 -0 -0 -0 -0 -0 -0 -0 -0 -0 -0 -0 -292 -289 -237 -234 -264 -329 -373 -432 -531 -605 -581 -578 -515 -501 -462 -398 -308 -303 -322 -309 -356 -429 -367 -393 -0
-0 -0 -0 -0 -0 -0 -0 -0 -0 -0 -0 -0 -0 -0 -0 -0 -0 -0 -0 -0 -0 -312 -200 -227 -285 -356 -401 -449 -647 -584 -600 -536 -505 -470 -444 -415 -435 -442 -399 -371 -335 -378 -350 -401
-0 -0 -0 -0 -0 -0 -0 -0 -0 -0 -0 -0 -0 -0 -0 -0 -0 -0 -0 -0 -0 -484 -530 -559 -232 -323 -373 -465 -473 -550 -476 -530 -485 -441 -427 -409 -421 -363 -341 -317 -340 -330 -289 -287
-0 -0 -0 -0 -0 -0 -0 -0 -0 -0 -0 -0 -0 -0 -0 -0 -0 -0 -0 -0 -382 -646 -611 -630 -745 -430 -371 -343 -447 -542 -480 -463 -484 -458 -395 -375 -425 -425 -383 -345 -396 -325 -271 -252
-0 -0 -0 -0 -0 -0 -0 -0 -0 -0 -0 -0 -0 -0 -0 -0 -0 -0 -0 -0 -0 -800 -810 -730 -693 -650 -670 -733 -414 -459 -501 -418 -402 -407 -407 -407 -360 -427 -503 -478 -477 -437 -284 -239
-0 -0 -0 -0 -0 -0 -0 -0 -0 -0 -0 -0 -0 -0 -0 -0 -299 -474 -0 -0 -0 -0 -883 -840 -752 -670 -674 -792 -469 -493 -558 -488 -397 -352 -276 -265 -247 -280 -367 -436 -395 -414 -297 -240
-0 -0 -0 -0 -0 -0 -0 -0 -0 -0 -0 -0 -0 -0 -0 -65 -328 -435 -0 -476 -0 -615 -714 -846 -827 -735 -722 -749 -525 -418 -552 -489 -387 -358 -257 -284 -255 -262 -313 -387 -333 -366 -325 -252
-0 -0 -0 -0 -0 -0 -0 -0 -0 -0 -0 -0 -0 -0 -0 -286 -284 -405 -427 -481 -520 -604 -673 -611 -687 -660 -717 -645 -660 -399 -426 -366 -306 -292 -236 -203 -248 -279 -282 -334 -359 -382 -351 -279
-0 -0 -0 -0 -0 -0 -0 -0 -0 -0 -0 -0 -0 -0 -0 -0 -147 -416 -385 -434 -457 -524 -544 -603 -543 -502 -602 -585 -690 -664 -477 -501 -391 -147 -181 -163 -225 -244 -283 -316 -385 -362 -404 -350
-0 -0 -0 -0 -0 -0 -0 -0 -0 -0 -0 -0 -0 -0 -0 -30 -193 -313 -395 -55 -373 -326 -337 -436 -487 -481 -499 -594 -329 -514 -630 -700 -658 -530 -116 -132 -190 -219 -258 -241 -230 -332 -289 -322
-0 -0 -0 -0 -0 -0 -0 -0 -0 -0 -0 -0 -0 -0 -0 -201 -276 -275 -351 -0 -266 -199 -419 -527 -575 -502 -431 -0 -526 -575 -532 -515 -501 -483 -280 -152 -187 -192 -206 -193 -178 -109 -226 -221
-0 -0 -0 -0 -0 -0 -0 -0 -0 -0 -0 -0 -0 -0 -0 -317 -161 -0 -0 -0 -410 -314 -303 -358 -616 -520 -440 -369 -356 -232 -253 -460 -578 -571 -161 -160 -127 -120 -81 -113 -104 -139 -161 -177
-0 -0 -0 -0 -0 -0 -0 -0 -0 -0 -0 -0 -0 -0 -0 -175 -119 -0 -263 -122 -0 -246 -239 -306 -539 -397 -0 -585 -416 -553 -423 -483 -698 -366 -97 -299 -727 -547 -574 -574 -269 -86 -129 -171
-0 -0 -0 -0 -0 -0 -0 -0 -0 -0 -0 -0 -0 -0 -93 -147 -211 -265 -249 -235 -195 -231 -241 -266 -260 -199 -0 -0 -520 -513 -0 -338 -134 -536 -478 -649 -759 -704 -570 -141 -154 -425 -242 -199
-0 -0 -0 -0 -0 -0 -0 -0 -0 -0 -55 -65 -66 -0 -153 -205 -246 -191 -215 -203 -86 -71 -70 -185 -108 -161 -302 -340 -317 -320 -282 -153 -0 -0 -0 -0 -0 -556 -0 -0 -175 -0 -0 -0
-0 -0 -0 -0 -0 -0 -0 -0 -0 -0 -111 -0 -0 -0 -0 -241 -178 -123 -175 -208 -108 -37 -31 -24 -69 -127 -101 -134 -167 -168 -220 -115 -0 -281 -0 -0 -0 -0 -61 -0 -270 -0 -0 -0
-0 -0 -0 -0 -0 -0 -0 -162 -147 -140 -122 -153 -98 -0 -147 -146 -134 -0 -0 -0 -112 -34 -36 -83 -45 -21 -28 -114 -215 -0 -0 -59 -188 -331 -0 -0 -0 -0 -0 -0 -0 -155 -0 -0
-0 -0 -0 -0 -0 -0 -0 -114 -86 -23 -0 -181 -154 -167 -0 -167 -14 -0 -0 -172 -44 -62 -72 -99 -70 -126 -37 -16 -10 -0 -0 -0 -0 -0 -0 -103 -0 -0 -0 -0 -0 -0 -0 -0
-0 -0 -0 -0 -6 -3 -0 -116 -134 -107 -64 -146 -165 -0 -0 -51 -66 -0 -18 -0 -0 -116 -108 -107 -70 -0 -0 -0 -0 -0 -0 -0 -0 -0 -0 -0 -0 -0 -0 -0 -0 -0 -18 -35
-0 -0 -99 -162 -86 -11 -55 -111 -128 -28 -0 -79 -0 -0 -0 -0 -0 -0 -140 -0 -0 -0 -44 -130 -111 -0 -0 -0 -0 -0 -0 -0 -0 -0 -0 -0 -0 -0 -0 -0 -0 -0 -0 -0
-46 -42 -93 -5 -47 -49 -130 -98 -49 -31 -0 -119 -0 -0 -0 -0 -129 -0 -175 -0 -118 -78 -22 -65 -0 -0 -0 -0 -0 -0 -0 -0 -0 -0 -0 -0 -0 -0 -0 -0 -0 -0 -0 -0
-0 -43 -4 -81 -28 -4 -13 -61 -10 -0 -94 -77 -109 -99 -117 -180 -123 -167 -137 -140 -108 -49 -10 -37 -79 -0 -0 -0 -0 -0 -0 -0 -0 -0 -0 -0 -0 -0 -0 -0 -0 -0 -0 -0
-28 -242 -58 -53 -37 -64 -110 -114 -166 -134 -106 -140 -134 -90 -42 -35 -89 -152 -137 -162 -130 -62 -76 -70 -82 -14 -70 -0 -0 -0 -0 -0 -0 -0 -0 -0 -0 -0 -0 -0 -0 -0 -0 -0
-0 -113 -86 -108 -95 -151 -135 -119 -110 -114 -116 -119 -92 -63 -47 -60 -106 -18 -65 -112 -124 -101 -90 -98 -91 -97 -0 -0 -0 -0 -0 -0 -0 -0 -0 -0 -0 -0 -0 -0 -0 -0 -0 -0
-12 -51 -48 -16 -0 -17 -32 -140 -181 -164 -131 -109 -93 -69 -61 -79 -24 -101 -121 -113 -37 -109 -108 -21 -14 -0 -0 -0 -0 -0 -0 -0 -0 -0 -0 -0 -0 -0 -0 -0 -0 -0 -0 -0
Wind_Speed
3 4 7 11 9 7 5 5 6 10 17 1 10 8 8 8 3 4 5 8 15 19 24 25 16 12 14 19 19 19 18 17 12 11 10 8 9 7 6 7 10 10 9 9
6 5 11 3 6 7 7 4 10 10 12 7 8 9 7 6 4 4 5 3 9 14 8 8 9 14 17 14 19 20 21 20 16 13 11 8 8 6 7 7 8 9 10 9
6 11 4 3 7 4 4 6 6 10 3 1 2 10 9 11 5 12 9 8 9 3 6 9 12 18 20 21 20 21 21 20 18 17 10 3 4 3 4 6 8 9 11 10
6 5 2 6 6 6 1 7 7 6 4 4 3 4 6 9 9 17 12 11 9 11 12 11 9 15 18 22 17 15 17 19 17 17 14 17 12 12 10 8 6 6 9 9
8 3 7 6 5 4 7 1 3 3 4 3 4 6 8 7 9 7 6 3 8 8 8 11 13 6 5 10 14 13 15 17 19 19 17 14 14 11 9 8 8 8 7 9
8 3 3 3 2 4 3 5 8 5 3 5 4 5 6 3 3 8 3 4 1 7 9 9 9 9 8 10 13 13 14 14 16 18 19 19 17 13 9 8 7 7 5 7
7 2 3 3 8 7 13 8 5 5 6 6 4 2 8 3 3 3 7 8 8 3 5 9 9 11 12 13 14 15 16 16 15 15 14 11 11 10 7 8 8 7 6 6
3 6 3 6 4 2 4 6 5 4 4 7 2 4 5 6 2 4 7 7 6 7 4 4 7 12 13 14 8 14 16 15 15 13 14 11 11 8 6 7 8 7 8 8
2 5 3 4 2 4 5 4 5 3 3 2 3 2 6 2 1 3 7 7 9 9 8 5 7 5 11 8 12 4 10 9 13 14 12 13 12 12 11 9 9 8 7 7
2 2 3 6 5 5 4 3 5 5 3 3 5 3 5 5 2 1 6 7 9 10 8 7 5 3 7 6 7 10 6 11 8 10 13 12 13 13 13 11 14 14 12 9
4 4 6 2 2 4 5 5 4 4 4 3 1 7 4 2 3 4 7 6 8 9 7 7 8 3 3 4 3 1 5 3 7 8 13 15 14 16 15 15 13 12 11 10
2 5 2 4 3 5 1 5 5 6 7 2 3 8 4 3 1 3 7 7 7 7 6 7 7 7 5 2 5 7 5 3 6 8 11 17 16 17 16 16 15 11 10 8
1 2 4 9 7 6 4 1 3 3 3 5 3 7 3 3 5 5 7 9 7 7 7 8 8 6 4 4 4 5 3 5 6 10 10 16 16 14 14 14 11 8 10 11
9 3 6 6 6 3 3 4 2 5 3 5 7 8 5 6 7 6 7 8 9 9 9 7 8 7 6 4 1 4 4 4 7 4 3 10 12 9 8 8 4 5 8 8
5 2 5 6 7 4 5 8 4 3 7 6 7 5 5 5 8 6 6 7 9 8 6 8 7 8 7 8 6 6 5 6 3 9 10 11 16 14 8 8 11 10 12 5
3 3 2 5 6 7 6 9 6 5 3 4 4 7 3 6 6 5 6 6 7 7 5 6 6 6 8 7 8 8 7 7 4 8 11 7 12 6 3 4 8 8 7 8
3 5 3 10 5 5 7 6 5 4 4 4 5 6 5 8 6 7 6 5 7 7 6 6 2 3 5 6 5 8 9 6 6 5 9 9 11 4 1 1 6 3 12 13
5 3 4 5 2 4 7 1 3 3 6 5 6 4 7 7 6 7 5 4 10 7 6 4 4 1 3 3 6 6 6 7 9 9 9 13 5 5 3 4 5 3 4 11
7 5 1 3 4 4 2 3 2 2 6 2 4 4 6 6 4 7 4 4 8 8 3 1 5 3 4 5 5 5 7 7 9 9 9 6 3 2 3 1 3 5 4 6
7 5 4 1 2 4 3 1 3 3 6 6 6 8 8 4 2 5 3 4 7 6 2 3 5 2 6 5 5 6 5 7 7 6 6 4 4 3 3 1 4 4 5 5
4 4 2 1 2 7 4 2 6 1 8 4 5 8 4 4 6 5 7 5 3 5 2 2 5 5 3 4 4 6 4 7 4 3 3 4 4 3 4 1 2 3 4 2
3 3 2 2 1 5 4 3 5 8 3 4 5 8 8 9 7 6 7 7 6 5 3 3 4 4 4 5 4 6 6 3 4 4 5 6 6 6 5 5 4 4 3 4
3 7 4 8 7 4 3 8 7 4 5 4 4 7 8 10 9 4 3 4 3 3 4 4 4 4 4 1 4 6 3 3 4 6 6 6 6 5 6 6 6 4 6 4
4 3 3 3 5 6 6 6 6 3 6 7 9 8 4 7 8 3 3 1 2 2 1 5 4 3 4 1 4 4 3 4 6 6 6 6 7 7 7 5 5 5 5 4
6 3 4 6 7 5 6 3 2 5 5 5 5 3 4 4 5 3 4 3 1 0 3 2 4 3 4 2 2 3 3 4 5 4 4 5 4 5 4 3 3 3 3 2
4 6 4 7 7 5 6 5 2 3 1 4 1 3 2 1 3 3 2 0 2 3 2 2 2 3 2 3 4 4 5 4 4 4 4 4 4 4 3 4 4 4 4 5
Wind_Direction
1 91 223 227 201 208 196 190 234 271 282 229 267 277 286 302 296 313 207 191 195 205 211 207 214 210 183 193 193 188 188 188 189 189 184 200 198 190 193 201 194 183 188 186
21 250 244 239 209 207 204 229 265 278 263 142 271 289 287 285 325 282 250 226 222 230 248 217 194 194 206 190 197 192 194 187 188 192 194 190 194 201 197 189 204 195 188 183
161 246 320 240 267 251 207 180 238 217 290 203 7 327 352 329 72 40 355 6 16 267 244 213 192 201 200 200 190 200 191 191 190 191 187 172 120 93 162 196 197 201 198 191
211 269 237 281 232 148 313 209 211 225 73 294 73 277 339 329 337 44 25 23 4 359 352 338 249 226 206 207 207 196 201 188 188 188 192 193 192 192 205 197 194 186 189 193
253 293 336 350 281 175 246 240 278 67 97 38 7 87 262 1 349 25 26 44 349 344 343 336 333 25 208 209 207 200 191 193 188 188 194 204 204 200 184 194 177 188 188 191
249 230 135 235 308 84 282 24 41 52 81 30 248 121 293 304 263 304 24 30 142 302 337 328 330 330 318 315 220 186 183 197 193 193 196 196 212 205 192 179 180 184 194 200
322 5 358 23 20 350 44 46 352 7 8 231 157 51 231 260 271 252 297 338 329 355 341 326 333 330 318 314 216 180 176 183 187 192 194 199 207 225 230 202 194 179 185 199
265 334 30 334 120 242 34 115 156 253 216 254 127 195 248 195 200 293 304 306 302 351 301 313 320 325 317 324 267 178 172 170 175 174 187 188 197 198 202 203 210 207 209 208
126 301 337 21 18 98 320 6 200 157 0 52 285 346 318 250 344 351 314 323 315 302 312 340 327 315 307 322 329 115 143 151 162 165 182 192 196 193 197 186 201 203 204 213
172 357 359 318 36 23 104 267 7 8 4 316 307 273 241 268 239 333 318 321 312 301 318 316 335 313 296 301 329 343 91 120 128 166 183 200 197 197 200 196 201 200 205 202
125 112 280 82 86 278 4 25 20 114 125 167 288 278 249 262 263 305 292 318 305 303 319 324 310 331 269 256 211 240 309 256 150 154 184 200 202 198 202 211 215 210 205 193
35 135 194 249 277 291 165 111 112 103 299 239 173 266 274 266 313 253 289 300 291 303 307 308 300 316 341 340 235 247 244 304 297 278 182 189 199 202 205 209 211 205 201 190
222 6 13 350 356 1 90 101 137 109 75 231 176 268 215 334 332 291 285 299 300 278 280 305 317 329 327 336 311 328 329 310 248 269 234 182 194 201 213 212 206 193 186 200
87 99 149 190 219 232 297 304 311 130 147 236 225 273 267 263 270 278 281 281 290 279 287 300 303 305 311 305 306 101 346 313 305 251 295 119 90 99 75 62 64 175 190 191
93 196 192 226 240 229 245 286 283 233 233 205 286 217 264 275 279 273 264 272 271 269 260 280 309 312 325 333 337 35 10 5 343 104 97 102 100 97 93 83 76 18 340 255
20 260 215 262 258 265 269 264 257 245 262 267 282 279 235 277 274 292 293 308 316 300 252 253 283 334 313 340 338 357 4 9 310 78 96 110 71 49 128 156 128 147 308 327
192 156 141 272 252 328 308 224 189 230 205 190 241 239 323 305 294 270 290 303 299 296 280 234 314 341 338 334 322 359 8 341 33 49 64 74 81 297 1 140 224 217 244 265
196 175 159 241 99 240 248 357 110 236 258 234 271 305 298 288 283 278 263 272 288 294 289 292 171 162 38 12 21 22 10 9 19 17 33 54 86 137 166 157 178 181 230 233
188 137 209 175 192 296 296 235 163 178 284 208 262 269 268 301 308 284 232 239 277 286 281 342 71 59 64 62 57 31 40 35 41 39 40 47 59 37 52 116 207 218 210 249
71 73 118 121 182 239 243 105 89 80 282 213 222 266 270 299 322 262 262 286 287 305 269 103 89 57 74 53 56 68 47 50 40 24 36 52 82 113 127 208 230 232 210 220
359 357 134 196 224 285 239 159 115 310 243 206 217 249 247 217 212 261 305 287 271 280 194 86 96 88 75 66 68 72 59 58 33 23 47 53 54 67 55 13 274 255 244 3
207 160 212 110 214 294 210 39 169 217 263 250 249 248 268 264 260 246 276 278 306 322 135 151 106 112 97 84 79 62 52 13 24 32 28 23 34 27 29 24 347 8 51 100
278 186 196 179 223 256 229 225 242 183 231 268 242 263 247 270 276 270 271 289 309 163 156 141 154 130 89 89 81 65 4 8 26 38 21 12 31 31 23 25 10 18 31 55
281 162 219 38 267 257 261 260 246 233 228 264 267 264 249 254 275 198 177 233 289 202 118 132 136 141 97 56 72 89 50 59 72 55 37 15 17 15 17 7 39 30 28 40
229 158 214 256 282 267 271 244 250 259 288 320 317 343 316 303 295 165 179 192 163 166 108 71 124 144 147 140 84 68 66 64 62 54 34 34 15 26 16 18 349 69 67 51
203 224 174 230 238 196 248 239 277 338 285 307 339 329 23 64 248 211 175 334 80 102 125 131 92 111 57 37 35 30 30 59 64 37 19 2 10 11 44 39 357 53 73 79